Regional Weather Roundup
Issued by NWS Bismarck, ND

Home | Current Version | Previous Version | Text Only | Print | Product List | Glossary On
Versions: 1 2 3 4 5 6 7 8 9 10 11 12 13 14 15 16 17 18 19 20 21 22 23 24 25 26 27 28 29 30 31 32 33 34 35 36 37 38 39 40 41 42 43 44 45 46 47 48 49 50
000
ASUS43 KBIS 020710
RWRBIS

NWR BROADCAST TEXT
NATIONAL WEATHER SERVICE BISMARCK ND
200 AM CDT TUE SEP 02 2014

NOTE: "FAIR" INDICATES FEW OR NO CLOUDS BELOW 12,000 FEET WITH NO
SIGNIFICANT WEATHER AND/OR OBSTRUCTIONS TO VISIBILITY.


CITY           SKY/WX    TMP DP  RH WIND       PRES   REMARKS
WILLISTON      CLOUDY    57  50  77 S3        29.81F
MINOT          PTCLDY    54  48  80 SW9       29.79F
MINOT AFB      MOCLDY    52  50  91 SW7       29.79F
BISMARCK       CLEAR     54  50  86 W5        29.86F
DICKINSON      PTCLDY    52  46  80 S10       29.86F
GARRISON         N/A     55  53  93 CALM      29.83S
HETTINGER ARPT CLEAR     51  45  79 CALM      29.92F
JAMESTOWN      CLEAR     54  48  80 W5        29.83S
BEACH            N/A     54  46  76 SW12      29.88F
CARRINGTON     FAIR      52  52 100 W7        29.83S
CROSBY         FAIR      54  52  94 S7        29.80F
HARVEY         FAIR      48  48 100 W6        29.81F
HAZEN          FAIR      50  48  93 CALM      29.85S
LINTON         FAIR      48  48 100 S3        29.88F
MANDAN         FAIR      54  48  82 SW9       29.87F
OAKES            N/A     50  50 100 SW5       29.86S
RUGBY          FAIR      46  46 100 CALM      29.80S
STANLEY        CLOUDY    50  50 100 CALM      29.81F
TIOGA          FAIR      48  48 100 S8        29.83F
WATFORD CITY   FAIR      50  48  93 SW3       29.80F
$$

CITY           SKY/WX    TMP DP  RH WIND       PRES   REMARKS
GRAND FORKS    CLEAR     53  49  86 SW8       29.75F
GRAND FORKS AF CLEAR     53  52  97 W7        29.76F
DEVILS LAKE    CLEAR     57  48  72 W10       29.78R
FARGO          CLEAR     55  52  89 SW9       29.81R
CANDO          FAIR      48  46  93 W7        29.79S
CAVALIER       FAIR      55  48  76 W8        29.74S
GRAFTON        FAIR      52  50  93 CALM      29.75R
GWINNER        SUNNY     55  55 100 SW8       29.86S
LANGDON        FAIR      48  46  93 W8        29.76F
ROLLA          FAIR      50  46  87 W9        29.79F
WALHALLA         N/A     55  50  82 W3        29.74S
$$

CITY           SKY/WX    TMP DP  RH WIND       PRES   REMARKS
ABERDEEN       PTCLDY    50  50 100 W5        29.88R
MOBRIDGE       CLEAR     50  49  96 N3        29.88F
BUFFALO          N/A     52  44  74 SW5       29.88S
RAPID CITY     CLEAR     45  42  89 CALM      30.00S
GLASGOW        MOCLDY    61  48  62 SW10      29.79S
SIDNEY         CLOUDY    52  48  87 S8        29.83F
WOLF POINT     CLOUDY    58  49  72 W5        29.80F
GLENDIVE       MOCLDY    54  46  76 S6        29.86F
MILES CITY     MOCLDY    52  43  71 SE7       29.88F
BAKER          PTCLDY    55  44  66 SW8       29.91F
$$

CITY           SKY/WX    TMP DP  RH WIND       PRES   REMARKS
BILLINGS       CLEAR     56  41  57 SW8       29.93S
GREAT FALLS    CLEAR     48  37  65 SW7       29.92S
REGINA         MOCLDY    55  46  71 NW3       29.73F
ESTEVAN        CLOUDY    55  50  82 NE2       29.78
$$




USA.gov is the U.S. government's official web portal to all federal, state and local government web resources and services.